Regional Weather Roundup
Issued by NWS Upton, NY

Current Version | Previous Version | Graphics & Text | Print | Product List | Glossary Off
Versions: 1 2 3 4 5 6 7 8 9 10 11 12 13 14 15 16 17 18 19 20 21 22 23 24 25 26 27

000
ASUS41 KOKX 172309
RWROKX

REGIONAL WEATHER ROUNDUP
NATIONAL WEATHER SERVICE NEW YORK NY
600 PM EST FRI NOV 17 2017

NOTE: "FAIR" INDICATES FEW OR NO CLOUDS BELOW 12,000 FEET WITH NO
SIGNIFICANT WEATHER AND/OR OBSTRUCTIONS TO VISIBILITY.

NYZ071-072-176-178-NJZ106-104-180000-
NEW YORK CITY METRO AREA

CITY           SKY/WX    TMP DP  RH WIND       PRES   REMARKS
Central Park   CLEAR     44  15  31 NW8       30.10R
Bronx Bot Gard   N/A     43  16  33 NW6       30.06F
LaGuardia APRT PTCLDY    46  20  35 NW18      30.07R
Kennedy INTL   PTCLDY    45  15  30 NW16G25   30.08S
Breezy Point     N/A     45 N/A N/A W13G18      N/A
Newark/Liberty PTCLDY    44  15  31 W7        30.10R
Teterboro      CLEAR     43  17  35 NW15      30.07S
$$

NYZ177-179-078>081-180000-
LONG ISLAND NEW YORK

CITY           SKY/WX    TMP DP  RH WIND       PRES   REMARKS
Jones Beach      N/A     45 N/A N/A NW8         N/A
Matinecock PT    N/A     45 N/A N/A W16         N/A
Farmingdale    CLEAR     43  16  33 NW8       30.06R
MacArthur/ISP  PTCLDY    42  20  41 W8        30.05R
Shirley        CLEAR     43  24  47 NW9       30.05R
Mt Sinai Harb    N/A    N/A N/A N/A NW10        N/A
Westhampton    CLEAR     35  22  58 NW3       30.05S
East Hampton   FAIR      42  17  36 NW6       30.04R
Southold       NOT AVBL
Montauk          N/A     46  22  38 NW13G23   30.04R
$$

NYZ052-065-067-180000-
HUDSON VALLEY

CITY           SKY/WX    TMP DP  RH WIND       PRES   REMARKS
White Plains   CLEAR     41  18  39 NW20      30.03F
Larchmont Harb   N/A     43 N/A N/A W15         N/A
Croton On Huds   N/A     43 N/A N/A NW7         N/A
Newburgh       CLEAR     37  19  48 W12       30.08S WCI  30
Montgomery     CLEAR     38  16  40 W8        30.07S WCI  32
Poughkeepsie   CLEAR     35  18  49 CALM      30.07S
Albany         PTCLDY    33  17  51 W12       30.10S WCI  24
$$

NJZ001-105-106-008-010-013-015-019>022-104-180000-
NEW JERSEY

CITY           SKY/WX    TMP DP  RH WIND       PRES   REMARKS
Newark/Liberty PTCLDY    44  15  31 W7        30.10R
Teterboro      CLEAR     43  17  35 NW15      30.07S
Caldwell       CLEAR     40  17  39 NW3       30.09S
Somerville     MOCLDY    41  18  39 NW5       30.08S
Linden         FAIR      43  15  32 CALM      30.10S
Perth Amboy      N/A     45 N/A N/A W5          N/A
Sussex         CLEAR     34  18  52 CALM      30.10R
Andover          N/A     33  20  58 CALM      30.10R
Trenton        PTCLDY    44  21  40 W3        30.10S
Millville      CLEAR     39  29  67 SW3       30.13S
Atlantic City  CLEAR     42  26  53 W6        30.11R
Wrightstown    CLEAR     41  23  48 W3        30.08S
Toms River     PTCLDY    38  25  59 SW6       30.11R WCI  33
Belmar         PTCLDY    43  19  38 W13       30.09S
$$

PAZ047>061-062-071-180000-
EASTERN PENNSYLVANIA

CITY           SKY/WX    TMP DP  RH WIND       PRES   REMARKS
Philadelphia   PTCLDY    47  20  34 NW7       30.13S
Allentown      PTCLDY    39  22  50 W5        30.11R
Scranton       CLOUDY    38  17  42 NW5       30.10F WCI  34
$$

CTZ002-004>006-009-010-012-RIZ004-006-007-MAZ004-011-015-180000-
SOUTHERN NEW ENGLAND
 IN CT

CITY           SKY/WX    TMP DP  RH WIND       PRES   REMARKS
Bradley INTL   PTCLDY    34  17  50 NW6       30.04R WCI  29
Hartford       CLEAR     40  15  36 NW9       30.05R WCI  34
Danbury        CLEAR     42  14  32 NW9       30.04F
Wtrbury/Oxford CLEAR     37  14  38 NW5       30.02F WCI  33
Norwalk Harbor   N/A     43 N/A N/A W12         N/A
Bridgeport     CLEAR     44  15  31 NW3       30.05R
Meriden        CLEAR     38  15  39 NW5       30.04S WCI  34
New Haven      PTCLDY    42  16  34 N10       30.05R
Chester        FAIR      39  10  30 NW13G24   30.02S WCI  32
Groton         CLEAR     39  16  39 NW8       30.03R WCI  33
Wilimantic     CLEAR     39  17  41 NW7       30.03R WCI  34

 IN RI

CITY           SKY/WX    TMP DP  RH WIND       PRES   REMARKS
Providence     CLEAR     39  21  48 W12       30.00R WCI  32
Block Island   CLEAR     42  20  41 NW15G29   30.01R
Westerly       CLEAR     40  19  43 NW6       30.03R
 IN MA

CITY           SKY/WX    TMP DP  RH WIND       PRES   REMARKS
Boston         CLEAR     40  19  43 NW12      29.97R WCI  33
Worcester      CLEAR     34  16  47 W10       29.95R WCI  26
Westfield      CLEAR     36  18  48 NW12      30.03R WCI  28
Provincetown   CLEAR     42  24  49 NW26G32   29.95R
Nantucket      CLEAR     43  24  47 NW14G23   29.95R
$$

ANZ330-335-338-340-345-350-353-355-180000-
COASTAL MARINE OBSERVATIONS


STATION/POSITION TIME  SKY/WX   TEMP    WIND        PRES    VSBY  WAVE
                                AIR SEA DIR/SP/G                  HT/PER
                 (UTC)          (F)     (DEG/KT/KT) (MB)    (MI)  (FT/S)
NY HARB ENTRANCE 2150            49 57  300/ 17/ 19 1017.2          3/ 4
20 S FIRE ISLAND 2150            49 58  310/ 19/ 25 1017.5          5/ 5
GREAT SOUTH BAY  2230            45 47  310/ 12/ 17   N/A
HUDSON CANYON    2150            51 60  320/ 25/ 29 1015.9          7/ 7
KINGS POINT      NOT AVBL
EXECUTION ROCKS  2230            46     300/ 17/ 21   N/A
WESTERN LI SOUND 2149            47     300/ 17/ 27   N/A           2/ 3
CENTRAL LI SOUND NOT AVBL
ROBBINS REEF     NOT AVBL
$$


>>>>>>>>>>>>>>>>>>>>>>>>>>>> KEY <<<<<<<<<<<<<<<<<<<<<<<<<<<
>                                                          <
>     SKY/WX - Sky Condition/Present Weather               <
>     TMP    - Temperature in Fahrenheit                   <
>     DP     - Dew Point in Fahrenheit                     <
>     RH     - Relative Humidity in Percent                <
>     WIND   - Direction (from) and Speed in MPH           <
>     PRES   - Mean Sea Level Pressure (inches of Hg)      <
>     WCI    - Wind Chill Index                            <
>     VSB    - VISIBILITY IN MILES                         <
>     HX     - HEAT INDEX                                  <
>     TC     - TEMPERATURE IN CELSIUS                      <
>     VRB    - VARIABLE WIND DIRECTION                     <
>                                                          <
>>>>>>>>>>>>>>>>>>>>>>>>>>>> KEY <<<<<<<<<<<<<<<<<<<<<<<<<<<




USA.gov is the U.S. government's official web portal to all federal, state and local government web resources and services.